Liberty, KS

5:36 PM CST on February 09, 2016 (GMT -0600)
Coffeyville Municipal

Weather History for KCFV - June, 2013

Change the Weather History Date:

Thursday, June 27, 2013

  Actual Average (WUND) Record (WUND)
Temperature  
Mean Temperature 87 °F -  
Max Temperature 99 °F - - (-1)
Min Temperature 75 °F - - (-1)
Cooling Degree Days 22    
Growing Degree Days 37 (Base 50)    
Moisture  
Dew Point 74 °F    
Average Humidity 66    
Maximum Humidity 94    
Minimum Humidity 43    
Precipitation  
Precipitation 0.00 in - - ()
Sea Level Pressure  
Sea Level Pressure 29.88 in    
Wind  
Wind Speed 6 mph (South)    
Max Wind Speed 15 mph    
Max Gust Speed 22 mph    
Visibility 9 miles    
Events      
Averages and records for this station are not official NWS values.
T = Trace of Precipitation, MM = Missing Value Source: NWS Daily Summary

Daily Weather History Graph

Daily Weather History Graph

Search for Another Location

Airport or City:

Trip Planner

Search our weather history database for the weather conditions in past years. The results will help you decide how hot, cold, wet, or windy it might be!

Date:

Astronomy

Jun. 27, 2013 Rise Set
Actual Time 6:04 AM CDT 8:46 PM CDT
Civil Twilight 5:33 AM CDT 9:17 PM CDT
Nautical Twilight 4:55 AM CDT 9:55 PM CDT
Astronomical Twilight 4:11 AM CDT 10:38 PM CDT
Moon 11:52 PM CDT (6/27) 10:59 AM CDT (6/27)
Length of Visible Light 15h 43m
Length of Day
14h 41m
Waning Gibbous, 76% of the Moon is Illuminated
Jun 27
Waning Gibbous
Jun 29
Last Quarter
Jul 8
New
Jul 15
First Quarter
Jul 22
Full

Hourly Weather History & Observations

Time (CDT) Temp. Heat Index Dew Point Humidity Pressure Visibility Wind Dir Wind Speed Gust Speed Precip Events Conditions
12:52 AM 80.1 °F 85.4 °F 75.9 °F 87% 29.89 in 10.0 mi South 4.6 mph - N/A   Clear
1:52 AM 80.1 °F 85.4 °F 75.9 °F 87% 29.87 in 10.0 mi SSW 5.8 mph - N/A   Clear
2:52 AM 79.0 °F - 75.0 °F 88% 29.88 in 9.0 mi South 5.8 mph - N/A   Clear
3:52 AM 78.1 °F - 75.0 °F 90% 29.87 in 8.0 mi South 5.8 mph - N/A   Clear
4:52 AM 77.0 °F - 75.0 °F 94% 29.88 in 8.0 mi SSW 5.8 mph - N/A   Clear
5:52 AM 75.9 °F - 73.9 °F 94% 29.91 in 7.0 mi Calm Calm - N/A   Clear
6:52 AM 75.9 °F - 73.9 °F 94% 29.92 in 5.0 mi ESE 3.5 mph - N/A   Clear
7:52 AM 80.1 °F 85.1 °F 75.0 °F 85% 29.92 in 8.0 mi SE 3.5 mph - N/A   Clear
8:52 AM 84.9 °F 93.3 °F 75.0 °F 72% 29.92 in 10.0 mi South 4.6 mph - N/A   Clear
9:52 AM 89.1 °F 99.1 °F 75.0 °F 63% 29.92 in 10.0 mi SSW 4.6 mph - N/A   Clear
10:52 AM 91.9 °F 100.7 °F 73.0 °F 54% 29.92 in 10.0 mi Calm Calm - N/A   Clear
11:52 AM 93.9 °F 105.4 °F 75.0 °F 54% 29.92 in 10.0 mi South 8.1 mph - N/A   Clear
12:52 PM 95.0 °F 106.7 °F 75.0 °F 52% 29.92 in 10.0 mi South 9.2 mph - N/A   Clear
1:52 PM 96.1 °F 107.1 °F 73.9 °F 49% 29.91 in 10.0 mi South 6.9 mph - N/A   Clear
2:52 PM 98.1 °F 108.0 °F 73.0 °F 44% 29.88 in 10.0 mi SSE 9.2 mph - N/A   Clear
3:52 PM 99.0 °F 109.3 °F 73.0 °F 43% 29.88 in 10.0 mi SSE 5.8 mph - N/A   Clear
4:52 PM 98.1 °F 107.2 °F 72.0 °F 43% 29.86 in 10.0 mi South 6.9 mph - N/A   Clear
5:52 PM 98.1 °F 107.2 °F 72.0 °F 43% 29.82 in 10.0 mi South 9.2 mph - N/A   Clear
6:52 PM 95.0 °F 105.2 °F 73.9 °F 50% 29.82 in 10.0 mi SSE 8.1 mph - N/A   Clear
7:52 PM 91.0 °F 101.6 °F 75.0 °F 59% 29.82 in 10.0 mi South 8.1 mph - N/A   Clear
8:52 PM 88.0 °F 97.5 °F 75.0 °F 65% 29.86 in 10.0 mi ENE 4.6 mph - N/A   Clear
9:52 PM 91.0 °F 101.6 °F 75.0 °F 59% 29.83 in 10.0 mi SSW 15.0 mph 21.9 mph N/A   Partly Cloudy
10:52 PM 86.0 °F 91.5 °F 71.1 °F 61% 29.83 in 10.0 mi South 6.9 mph - N/A   Clear
11:52 PM 82.9 °F 85.0 °F 66.0 °F 56% 29.86 in 10.0 mi NW 11.5 mph 16.1 mph N/A   Partly Cloudy